Year,Month,Day,Hour,Minute,Value (Times are PST for temperature in C)
2016,06,05,00,00,17.50
2016,06,05,00,01,17.40
2016,06,05,00,02,17.40
2016,06,05,00,03,17.40
2016,06,05,00,04,17.40
2016,06,05,00,05,17.40
2016,06,05,00,06,17.40
2016,06,05,00,07,17.40
2016,06,05,00,08,17.40
2016,06,05,00,09,17.40
2016,06,05,00,10,17.40
2016,06,05,00,11,17.40
2016,06,05,00,12,17.30
2016,06,05,00,13,17.30
2016,06,05,00,14,17.30
2016,06,05,00,15,17.30
2016,06,05,00,16,17.30
2016,06,05,00,17,17.30
2016,06,05,00,18,17.30
2016,06,05,00,19,17.30
2016,06,05,00,20,17.20
2016,06,05,00,21,17.20
2016,06,05,00,22,17.20
2016,06,05,00,23,17.30
2016,06,05,00,24,17.30
2016,06,05,00,25,17.30
2016,06,05,00,26,17.30
2016,06,05,00,27,17.30
2016,06,05,00,28,17.30
2016,06,05,00,29,17.30
2016,06,05,00,30,17.30
2016,06,05,00,31,17.30
2016,06,05,00,32,17.20
2016,06,05,00,33,17.20
2016,06,05,00,34,17.20
2016,06,05,00,35,17.20
2016,06,05,00,36,17.10
2016,06,05,00,37,17.10
2016,06,05,00,38,17.10
2016,06,05,00,39,17.10
2016,06,05,00,40,17.00
2016,06,05,00,41,17.00
2016,06,05,00,42,16.90
2016,06,05,00,43,16.90
2016,06,05,00,44,16.90
2016,06,05,00,45,16.90
2016,06,05,00,46,16.90
2016,06,05,00,47,16.90
2016,06,05,00,48,16.90
2016,06,05,00,49,16.90
2016,06,05,00,50,16.90
2016,06,05,00,51,16.90
2016,06,05,00,52,16.90
2016,06,05,00,53,16.90
2016,06,05,00,54,16.90
2016,06,05,00,55,16.90
2016,06,05,00,56,16.90
2016,06,05,00,57,16.90
2016,06,05,00,58,16.80
2016,06,05,00,59,16.80
2016,06,05,01,00,16.80
2016,06,05,01,01,16.80
2016,06,05,01,02,16.80
2016,06,05,01,03,16.80
2016,06,05,01,04,16.80
2016,06,05,01,05,16.80
2016,06,05,01,06,16.80
2016,06,05,01,07,16.80
2016,06,05,01,08,16.80
2016,06,05,01,09,16.80
2016,06,05,01,10,16.80
2016,06,05,01,11,16.80
2016,06,05,01,12,16.80
2016,06,05,01,13,16.70
2016,06,05,01,14,16.70
2016,06,05,01,15,16.70
2016,06,05,01,16,16.60
2016,06,05,01,17,16.60
2016,06,05,01,18,16.60
2016,06,05,01,19,16.50
2016,06,05,01,20,16.50
2016,06,05,01,21,16.40
2016,06,05,01,22,16.40
2016,06,05,01,23,16.40
2016,06,05,01,24,16.30
2016,06,05,01,25,16.30
2016,06,05,01,26,16.30
2016,06,05,01,27,16.30
2016,06,05,01,28,16.30
2016,06,05,01,29,16.30
2016,06,05,01,30,16.30
2016,06,05,01,31,16.30
2016,06,05,01,32,16.20
2016,06,05,01,33,16.20
2016,06,05,01,34,16.20
2016,06,05,01,35,16.20
2016,06,05,01,36,16.10
2016,06,05,01,37,16.10
2016,06,05,01,38,16.00
2016,06,05,01,39,16.00
2016,06,05,01,40,16.00
2016,06,05,01,41,16.00
2016,06,05,01,42,16.00
2016,06,05,01,43,16.00
2016,06,05,01,44,16.00
2016,06,05,01,45,16.10
2016,06,05,01,46,16.10
2016,06,05,01,47,16.10
2016,06,05,01,48,16.10
2016,06,05,01,49,16.10
2016,06,05,01,50,16.10
2016,06,05,01,51,16.10
2016,06,05,01,52,16.10
2016,06,05,01,53,16.10
2016,06,05,01,54,16.10
2016,06,05,01,55,16.10
2016,06,05,01,56,16.10
2016,06,05,01,57,16.10
2016,06,05,01,58,16.10
2016,06,05,01,59,16.10
2016,06,05,02,00,16.10
2016,06,05,02,01,16.10
2016,06,05,02,02,16.10
2016,06,05,02,03,16.10
2016,06,05,02,04,16.10
2016,06,05,02,05,16.10
2016,06,05,02,06,16.10
2016,06,05,02,07,16.00
2016,06,05,02,08,16.00
2016,06,05,02,09,16.00
2016,06,05,02,10,16.00
2016,06,05,02,11,16.00
2016,06,05,02,12,16.00
2016,06,05,02,13,16.00
2016,06,05,02,14,16.00
2016,06,05,02,15,16.00
2016,06,05,02,16,16.00
2016,06,05,02,17,16.00
2016,06,05,02,18,16.00
2016,06,05,02,19,16.00
2016,06,05,02,20,16.00
2016,06,05,02,21,15.90
2016,06,05,02,22,15.90
2016,06,05,02,23,15.90
2016,06,05,02,24,15.90
2016,06,05,02,25,15.90
2016,06,05,02,26,15.90
2016,06,05,02,27,15.80
2016,06,05,02,28,15.80
2016,06,05,02,29,15.80
2016,06,05,02,30,15.80
2016,06,05,02,31,15.80
2016,06,05,02,32,15.80
2016,06,05,02,33,15.80
2016,06,05,02,34,15.70
2016,06,05,02,35,15.70
2016,06,05,02,36,15.70
2016,06,05,02,37,15.70
2016,06,05,02,38,15.70
2016,06,05,02,39,15.70
2016,06,05,02,40,15.70
2016,06,05,02,41,15.70
2016,06,05,02,42,15.70
2016,06,05,02,43,15.70
2016,06,05,02,44,15.70
2016,06,05,02,45,15.70
2016,06,05,02,46,15.70
2016,06,05,02,47,15.70
2016,06,05,02,48,15.70
2016,06,05,02,49,15.70
2016,06,05,02,50,15.60
2016,06,05,02,51,15.60
2016,06,05,02,52,15.60
2016,06,05,02,53,15.50
2016,06,05,02,54,15.50
2016,06,05,02,55,15.50
2016,06,05,02,56,15.60
2016,06,05,02,57,15.60
2016,06,05,02,58,15.60
2016,06,05,02,59,15.60
2016,06,05,03,00,15.60
2016,06,05,03,01,15.60
2016,06,05,03,02,15.50
2016,06,05,03,03,15.50
2016,06,05,03,04,15.50
2016,06,05,03,05,15.40
2016,06,05,03,06,15.40
2016,06,05,03,07,15.40
2016,06,05,03,08,15.40
2016,06,05,03,09,15.30
2016,06,05,03,10,15.30
2016,06,05,03,11,15.30
2016,06,05,03,12,15.30
2016,06,05,03,13,15.30
2016,06,05,03,14,15.30
2016,06,05,03,15,15.30
2016,06,05,03,16,15.30
2016,06,05,03,17,15.30
2016,06,05,03,18,15.20
2016,06,05,03,19,15.20
2016,06,05,03,20,15.20
2016,06,05,03,21,15.20
2016,06,05,03,22,15.20
2016,06,05,03,23,15.20
2016,06,05,03,24,15.20
2016,06,05,03,25,15.20
2016,06,05,03,26,15.20
2016,06,05,03,27,15.20
2016,06,05,03,28,15.20
2016,06,05,03,29,15.20
2016,06,05,03,30,15.30
2016,06,05,03,31,15.30
2016,06,05,03,32,15.30
2016,06,05,03,33,15.30
2016,06,05,03,34,15.30
2016,06,05,03,35,15.30
2016,06,05,03,36,15.20
2016,06,05,03,37,15.20
2016,06,05,03,38,15.20
2016,06,05,03,39,15.20
2016,06,05,03,40,15.20
2016,06,05,03,41,15.10
2016,06,05,03,42,15.10
2016,06,05,03,43,15.00
2016,06,05,03,44,15.00
2016,06,05,03,45,14.90
2016,06,05,03,46,14.90
2016,06,05,03,47,14.90
2016,06,05,03,48,14.90
2016,06,05,03,49,14.90
2016,06,05,03,50,14.90
2016,06,05,03,51,14.90
2016,06,05,03,52,14.90
2016,06,05,03,53,14.90
2016,06,05,03,54,15.00
2016,06,05,03,55,15.00
2016,06,05,03,56,15.00
2016,06,05,03,57,15.00
2016,06,05,03,58,15.00
2016,06,05,03,59,15.10
2016,06,05,04,00,15.10
2016,06,05,04,01,15.10
2016,06,05,04,02,15.10
2016,06,05,04,03,15.10
2016,06,05,04,04,15.00
2016,06,05,04,05,15.00
2016,06,05,04,06,15.00
2016,06,05,04,07,15.00
2016,06,05,04,08,15.00
2016,06,05,04,09,15.00
2016,06,05,04,10,14.90
2016,06,05,04,11,14.90
2016,06,05,04,12,14.90
2016,06,05,04,13,14.90
2016,06,05,04,14,14.90
2016,06,05,04,15,14.80
2016,06,05,04,16,14.80
2016,06,05,04,17,14.80
2016,06,05,04,18,14.80
2016,06,05,04,19,14.80
2016,06,05,04,20,14.70
2016,06,05,04,21,14.70
2016,06,05,04,22,14.70
2016,06,05,04,23,14.70
2016,06,05,04,24,14.70
2016,06,05,04,25,14.70
2016,06,05,04,26,14.70
2016,06,05,04,27,14.70
2016,06,05,04,28,14.70
2016,06,05,04,29,14.70
2016,06,05,04,30,14.70
2016,06,05,04,31,14.70
2016,06,05,04,32,14.70
2016,06,05,04,33,14.60
2016,06,05,04,34,14.60
2016,06,05,04,35,14.60
2016,06,05,04,36,14.60
2016,06,05,04,37,14.60
2016,06,05,04,38,14.60
2016,06,05,04,39,14.60
2016,06,05,04,40,14.50
2016,06,05,04,41,14.50
2016,06,05,04,42,14.50
2016,06,05,04,43,14.40
2016,06,05,04,44,14.40
2016,06,05,04,45,14.40
2016,06,05,04,46,14.40
2016,06,05,04,47,14.40
2016,06,05,04,48,14.40
2016,06,05,04,49,14.40
2016,06,05,04,50,14.40
2016,06,05,04,51,14.40
2016,06,05,04,52,14.40
2016,06,05,04,53,14.50
2016,06,05,04,54,14.50
2016,06,05,04,55,14.50
2016,06,05,04,56,14.60
2016,06,05,04,57,14.60
2016,06,05,04,58,14.60
2016,06,05,04,59,14.60
2016,06,05,05,00,14.70
2016,06,05,05,01,14.70
2016,06,05,05,02,14.70
2016,06,05,05,03,14.70
2016,06,05,05,04,14.70
2016,06,05,05,05,14.70
2016,06,05,05,06,14.70
2016,06,05,05,07,14.70
2016,06,05,05,08,14.70
2016,06,05,05,09,14.70
2016,06,05,05,10,14.70
2016,06,05,05,11,14.70
2016,06,05,05,12,14.70
2016,06,05,05,13,14.70
2016,06,05,05,14,14.70
2016,06,05,05,15,14.70
2016,06,05,05,16,14.70
2016,06,05,05,17,14.70
2016,06,05,05,18,14.70
2016,06,05,05,19,14.70
2016,06,05,05,20,14.70
2016,06,05,05,21,14.70
2016,06,05,05,22,14.70
2016,06,05,05,23,14.70
2016,06,05,05,24,14.70
2016,06,05,05,25,14.70
2016,06,05,05,26,14.70
2016,06,05,05,27,14.70
2016,06,05,05,28,14.70
2016,06,05,05,29,14.70
2016,06,05,05,30,14.70
2016,06,05,05,31,14.70
2016,06,05,05,32,14.70
2016,06,05,05,33,14.70
2016,06,05,05,34,14.70
2016,06,05,05,35,14.70
2016,06,05,05,36,14.70
2016,06,05,05,37,14.60
2016,06,05,05,38,14.60
2016,06,05,05,39,14.60
2016,06,05,05,40,14.60
2016,06,05,05,41,14.60
2016,06,05,05,42,14.50
2016,06,05,05,43,14.50
2016,06,05,05,44,14.40
2016,06,05,05,45,14.40
2016,06,05,05,46,14.40
2016,06,05,05,47,14.40
2016,06,05,05,48,14.40
2016,06,05,05,49,14.40
2016,06,05,05,50,14.40
2016,06,05,05,51,14.40
2016,06,05,05,52,14.40
2016,06,05,05,53,14.40
2016,06,05,05,54,14.40
2016,06,05,05,55,14.40
2016,06,05,05,56,14.40
2016,06,05,05,57,14.40
2016,06,05,05,58,14.40
2016,06,05,05,59,14.50
2016,06,05,06,00,14.50
2016,06,05,06,01,14.50
2016,06,05,06,02,14.50
2016,06,05,06,03,14.50
2016,06,05,06,04,14.50
2016,06,05,06,05,14.50
2016,06,05,06,06,14.50
2016,06,05,06,07,14.60
2016,06,05,06,08,14.70
2016,06,05,06,09,14.70
2016,06,05,06,10,14.70
2016,06,05,06,11,14.80
2016,06,05,06,12,14.80
2016,06,05,06,13,14.90
2016,06,05,06,14,14.90
2016,06,05,06,15,15.00
2016,06,05,06,16,15.00
2016,06,05,06,17,15.10
2016,06,05,06,18,15.10
2016,06,05,06,19,15.20
2016,06,05,06,20,15.30
2016,06,05,06,21,15.30
2016,06,05,06,22,15.40
2016,06,05,06,23,15.50
2016,06,05,06,24,15.60
2016,06,05,06,25,15.60
2016,06,05,06,26,15.70
2016,06,05,06,27,15.70
2016,06,05,06,28,15.80
2016,06,05,06,29,15.90
2016,06,05,06,30,15.90
2016,06,05,06,31,16.00
2016,06,05,06,32,16.10
2016,06,05,06,33,16.10
2016,06,05,06,34,16.20
2016,06,05,06,35,16.20
2016,06,05,06,36,16.30
2016,06,05,06,37,16.30
2016,06,05,06,38,16.30
2016,06,05,06,39,16.40
2016,06,05,06,40,16.40
2016,06,05,06,41,16.40
2016,06,05,06,42,16.50
2016,06,05,06,43,16.50
2016,06,05,06,44,16.60
2016,06,05,06,45,16.70
2016,06,05,06,46,16.80
2016,06,05,06,47,16.80
2016,06,05,06,48,16.90
2016,06,05,06,49,17.00
2016,06,05,06,50,17.10
2016,06,05,06,51,17.10
2016,06,05,06,52,17.20
2016,06,05,06,53,17.20
2016,06,05,06,54,17.30
2016,06,05,06,55,17.30
2016,06,05,06,56,17.40
2016,06,05,06,57,17.60
2016,06,05,06,58,17.70
2016,06,05,06,59,17.80
2016,06,05,07,00,17.80
2016,06,05,07,01,17.90
2016,06,05,07,02,18.00
2016,06,05,07,03,18.00
2016,06,05,07,04,18.10
2016,06,05,07,05,18.10
2016,06,05,07,06,18.10
2016,06,05,07,07,18.20
2016,06,05,07,08,18.20
2016,06,05,07,09,18.30
2016,06,05,07,10,18.30
2016,06,05,07,11,18.30
2016,06,05,07,12,18.40
2016,06,05,07,13,18.40
2016,06,05,07,14,18.40
2016,06,05,07,15,18.50
2016,06,05,07,16,18.50
2016,06,05,07,17,18.60
2016,06,05,07,18,18.70
2016,06,05,07,19,18.70
2016,06,05,07,20,18.80
2016,06,05,07,21,18.80
2016,06,05,07,22,18.90
2016,06,05,07,23,19.00
2016,06,05,07,24,19.10
2016,06,05,07,25,19.20
2016,06,05,07,26,19.30
2016,06,05,07,27,19.30
2016,06,05,07,28,19.40
2016,06,05,07,29,19.50
2016,06,05,07,30,19.60
2016,06,05,07,31,19.60
2016,06,05,07,32,19.70
2016,06,05,07,33,19.80
2016,06,05,07,34,19.80
2016,06,05,07,35,19.90
2016,06,05,07,36,19.90
2016,06,05,07,37,20.00
2016,06,05,07,38,20.10
2016,06,05,07,39,20.10
2016,06,05,07,40,20.20
2016,06,05,07,41,20.30
2016,06,05,07,42,20.30
2016,06,05,07,43,20.40
2016,06,05,07,44,20.50
2016,06,05,07,45,20.60
2016,06,05,07,46,20.70
2016,06,05,07,47,20.70
2016,06,05,07,48,20.80
2016,06,05,07,49,20.90
2016,06,05,07,50,21.00
2016,06,05,07,51,21.00
2016,06,05,07,52,21.10
2016,06,05,07,53,21.20
2016,06,05,07,54,21.20
2016,06,05,07,55,21.30
2016,06,05,07,56,21.40
2016,06,05,07,57,21.50
2016,06,05,07,58,21.60
2016,06,05,07,59,21.60
2016,06,05,08,00,21.70
2016,06,05,08,01,21.80
2016,06,05,08,02,21.90
2016,06,05,08,03,22.10
2016,06,05,08,04,22.20
2016,06,05,08,05,22.30
2016,06,05,08,06,22.40
2016,06,05,08,07,22.50
2016,06,05,08,08,22.50
2016,06,05,08,09,22.60
2016,06,05,08,10,22.60
2016,06,05,08,11,22.60
2016,06,05,08,12,22.70
2016,06,05,08,13,22.70
2016,06,05,08,14,22.80
2016,06,05,08,15,22.80
2016,06,05,08,16,22.90
2016,06,05,08,17,22.90
2016,06,05,08,18,22.90
2016,06,05,08,19,23.00
2016,06,05,08,20,23.00
2016,06,05,08,21,23.00
2016,06,05,08,22,23.00
2016,06,05,08,23,23.10
2016,06,05,08,24,23.10
2016,06,05,08,25,23.10
2016,06,05,08,26,23.10
2016,06,05,08,27,23.00
2016,06,05,08,28,23.00
2016,06,05,08,29,23.00
2016,06,05,08,30,23.00
2016,06,05,08,31,23.00
2016,06,05,08,32,23.00
2016,06,05,08,33,22.80
2016,06,05,08,34,22.60
2016,06,05,08,35,22.50
2016,06,05,08,36,22.30
2016,06,05,08,37,22.20
2016,06,05,08,38,22.10
2016,06,05,08,39,22.00
2016,06,05,08,40,22.00
2016,06,05,08,41,21.90
2016,06,05,08,42,22.00
2016,06,05,08,43,22.00
2016,06,05,08,44,22.10
2016,06,05,08,45,22.20
2016,06,05,08,46,22.20
2016,06,05,08,47,22.30
2016,06,05,08,48,22.30
2016,06,05,08,49,22.30
2016,06,05,08,50,22.40
2016,06,05,08,51,22.40
2016,06,05,08,52,22.60
2016,06,05,08,53,22.70
2016,06,05,08,54,22.90
2016,06,05,08,55,23.10
2016,06,05,08,56,23.20
2016,06,05,08,57,23.30
2016,06,05,08,58,23.40
2016,06,05,08,59,23.40
2016,06,05,09,00,23.50
2016,06,05,09,01,23.60
2016,06,05,09,02,23.70
2016,06,05,09,03,23.80
2016,06,05,09,04,23.80
2016,06,05,09,05,23.80
2016,06,05,09,06,23.80
2016,06,05,09,07,23.80
2016,06,05,09,08,23.80
2016,06,05,09,09,23.70
2016,06,05,09,10,23.70
2016,06,05,09,11,23.60
2016,06,05,09,12,23.60
2016,06,05,09,13,23.60
2016,06,05,09,14,23.60
2016,06,05,09,15,23.60
2016,06,05,09,16,23.60
2016,06,05,09,17,23.60
2016,06,05,09,18,23.60
2016,06,05,09,19,23.60
2016,06,05,09,20,23.70
2016,06,05,09,21,23.80
2016,06,05,09,22,23.80
2016,06,05,09,23,23.90
2016,06,05,09,24,24.00
2016,06,05,09,25,24.00
2016,06,05,09,26,24.10
2016,06,05,09,27,24.10
2016,06,05,09,28,24.20
2016,06,05,09,29,24.20
2016,06,05,09,30,24.30
2016,06,05,09,31,24.40
2016,06,05,09,32,24.50
2016,06,05,09,33,24.60
2016,06,05,09,34,24.70
2016,06,05,09,35,24.80
2016,06,05,09,36,24.80
2016,06,05,09,37,24.90
2016,06,05,09,38,25.00
2016,06,05,09,39,25.00
2016,06,05,09,40,25.10
2016,06,05,09,41,25.20
2016,06,05,09,42,25.20
2016,06,05,09,43,25.30
2016,06,05,09,44,25.30
2016,06,05,09,45,25.30
2016,06,05,09,46,25.30
2016,06,05,09,47,25.30
2016,06,05,09,48,25.40
2016,06,05,09,49,25.40
2016,06,05,09,50,25.40
2016,06,05,09,51,25.50
2016,06,05,09,52,25.50
2016,06,05,09,53,25.60
2016,06,05,09,54,25.60
2016,06,05,09,55,25.60
2016,06,05,09,56,25.50
2016,06,05,09,57,25.50
2016,06,05,09,58,25.60
2016,06,05,09,59,25.60
2016,06,05,10,00,25.60
2016,06,05,10,01,25.70
2016,06,05,10,02,25.70
2016,06,05,10,03,25.70
2016,06,05,10,04,25.80
2016,06,05,10,05,25.80
2016,06,05,10,06,25.90
2016,06,05,10,07,26.00
2016,06,05,10,08,25.90
2016,06,05,10,09,25.90
2016,06,05,10,10,25.80
2016,06,05,10,11,25.80
2016,06,05,10,12,25.80
2016,06,05,10,13,25.80
2016,06,05,10,14,25.80
2016,06,05,10,15,25.80
2016,06,05,10,16,25.80
2016,06,05,10,17,25.80
2016,06,05,10,18,25.80
2016,06,05,10,19,25.80
2016,06,05,10,20,25.90
2016,06,05,10,21,25.90
2016,06,05,10,22,26.00
2016,06,05,10,23,26.00
2016,06,05,10,24,26.10
2016,06,05,10,25,26.10
2016,06,05,10,26,26.20
2016,06,05,10,27,26.30
2016,06,05,10,28,26.30
2016,06,05,10,29,26.40
2016,06,05,10,30,26.50
2016,06,05,10,31,26.60
2016,06,05,10,32,26.60
2016,06,05,10,33,26.60
2016,06,05,10,34,26.60
2016,06,05,10,35,26.70
2016,06,05,10,36,26.70
2016,06,05,10,37,26.70
2016,06,05,10,38,26.70
2016,06,05,10,39,26.70
2016,06,05,10,40,26.70
2016,06,05,10,41,26.70
2016,06,05,10,42,26.70
2016,06,05,10,43,26.70
2016,06,05,10,44,26.70
2016,06,05,10,45,26.70
2016,06,05,10,46,26.80
2016,06,05,10,47,26.80
2016,06,05,10,48,26.80
2016,06,05,10,49,26.90
2016,06,05,10,50,26.90
2016,06,05,10,51,26.90
2016,06,05,10,52,27.00
2016,06,05,10,53,27.00
2016,06,05,10,54,27.00
2016,06,05,10,55,27.00
2016,06,05,10,56,27.00
2016,06,05,10,57,27.00
2016,06,05,10,58,27.00
2016,06,05,10,59,27.00
2016,06,05,11,00,27.10
2016,06,05,11,01,27.10
2016,06,05,11,02,27.10
2016,06,05,11,03,27.10
2016,06,05,11,04,27.10
2016,06,05,11,05,27.10
2016,06,05,11,06,27.20
2016,06,05,11,07,27.20
2016,06,05,11,08,27.10
2016,06,05,11,09,27.00
2016,06,05,11,10,27.00
2016,06,05,11,11,26.90
2016,06,05,11,12,26.80
2016,06,05,11,13,26.80
2016,06,05,11,14,26.80
2016,06,05,11,15,26.80
2016,06,05,11,16,26.90
2016,06,05,11,17,27.00
2016,06,05,11,18,27.10
2016,06,05,11,19,27.10
2016,06,05,11,20,27.10
2016,06,05,11,21,27.10
2016,06,05,11,22,27.00
2016,06,05,11,23,27.00
2016,06,05,11,24,26.90
2016,06,05,11,25,26.90
2016,06,05,11,26,26.90
2016,06,05,11,27,26.90
2016,06,05,11,28,26.80
2016,06,05,11,29,26.90
2016,06,05,11,30,26.90
2016,06,05,11,31,27.00
2016,06,05,11,32,27.10
2016,06,05,11,33,27.10
2016,06,05,11,34,27.10
2016,06,05,11,35,27.10
2016,06,05,11,36,27.10
2016,06,05,11,37,27.00
2016,06,05,11,38,27.10
2016,06,05,11,39,27.00
2016,06,05,11,40,27.00
2016,06,05,11,41,27.10
2016,06,05,11,42,27.10
2016,06,05,11,43,27.10
2016,06,05,11,44,27.20
2016,06,05,11,45,27.20
2016,06,05,11,46,27.20
2016,06,05,11,47,27.20
2016,06,05,11,48,27.20
2016,06,05,11,49,27.20
2016,06,05,11,50,27.30
2016,06,05,11,51,27.30
2016,06,05,11,52,27.30
2016,06,05,11,53,27.40
2016,06,05,11,54,27.50
2016,06,05,11,55,27.50
2016,06,05,11,56,27.60
2016,06,05,11,57,27.50
2016,06,05,11,58,27.40
2016,06,05,11,59,27.40
2016,06,05,12,00,27.30
2016,06,05,12,01,27.30
2016,06,05,12,02,27.30
2016,06,05,12,03,27.30
2016,06,05,12,04,27.30
2016,06,05,12,05,27.30
2016,06,05,12,06,27.30
2016,06,05,12,07,27.40
2016,06,05,12,08,27.50
2016,06,05,12,09,27.60
2016,06,05,12,10,27.70
2016,06,05,12,11,27.70
2016,06,05,12,12,27.70
2016,06,05,12,13,27.70
2016,06,05,12,14,27.70
2016,06,05,12,15,27.80
2016,06,05,12,16,27.80
2016,06,05,12,17,27.80
2016,06,05,12,18,27.80
2016,06,05,12,19,27.80
2016,06,05,12,20,27.80
2016,06,05,12,21,27.80
2016,06,05,12,22,27.70
2016,06,05,12,23,27.70
2016,06,05,12,24,27.80
2016,06,05,12,25,27.80
2016,06,05,12,26,27.90
2016,06,05,12,27,27.90
2016,06,05,12,28,27.90
2016,06,05,12,29,27.90
2016,06,05,12,30,28.00
2016,06,05,12,31,28.00
2016,06,05,12,32,28.10
2016,06,05,12,33,28.20
2016,06,05,12,34,28.20
2016,06,05,12,35,28.30
2016,06,05,12,36,28.30
2016,06,05,12,37,28.30
2016,06,05,12,38,28.30
2016,06,05,12,39,28.20
2016,06,05,12,40,28.30
2016,06,05,12,41,28.30
2016,06,05,12,42,28.30
2016,06,05,12,43,28.20
2016,06,05,12,44,28.20
2016,06,05,12,45,28.10
2016,06,05,12,46,28.10
2016,06,05,12,47,28.10
2016,06,05,12,48,28.20
2016,06,05,12,49,28.20
2016,06,05,12,50,28.30
2016,06,05,12,51,28.40
2016,06,05,12,52,28.40
2016,06,05,12,53,28.50
2016,06,05,12,54,28.40
2016,06,05,12,55,28.40
2016,06,05,12,56,28.40
2016,06,05,12,57,28.30
2016,06,05,12,58,28.30
2016,06,05,12,59,28.30
2016,06,05,13,00,28.20
2016,06,05,13,01,28.20
2016,06,05,13,02,28.20
2016,06,05,13,03,28.30
2016,06,05,13,04,28.40
2016,06,05,13,05,28.50
2016,06,05,13,06,28.60
2016,06,05,13,07,28.60
2016,06,05,13,08,28.60
2016,06,05,13,09,28.50
2016,06,05,13,10,28.50
2016,06,05,13,11,28.40
2016,06,05,13,12,28.40
2016,06,05,13,13,28.30
2016,06,05,13,14,28.30
2016,06,05,13,15,28.40
2016,06,05,13,16,28.40
2016,06,05,13,17,28.40
2016,06,05,13,18,28.50
2016,06,05,13,19,28.50
2016,06,05,13,20,28.40
2016,06,05,13,21,28.40
2016,06,05,13,22,28.40
2016,06,05,13,23,28.40
2016,06,05,13,24,28.50
2016,06,05,13,25,28.50
2016,06,05,13,26,28.50
2016,06,05,13,27,28.60
2016,06,05,13,28,28.60
2016,06,05,13,29,28.60
2016,06,05,13,30,28.70
2016,06,05,13,31,28.60
2016,06,05,13,32,28.60
2016,06,05,13,33,28.60
2016,06,05,13,34,28.50
2016,06,05,13,35,28.50
2016,06,05,13,36,28.50
2016,06,05,13,37,28.60
2016,06,05,13,38,28.60
2016,06,05,13,39,28.60
2016,06,05,13,40,28.60
2016,06,05,13,41,28.60
2016,06,05,13,42,28.70
2016,06,05,13,43,28.80
2016,06,05,13,44,28.80
2016,06,05,13,45,28.80
2016,06,05,13,46,28.90
2016,06,05,13,47,28.90
2016,06,05,13,48,29.00
2016,06,05,13,49,29.00
2016,06,05,13,50,29.10
2016,06,05,13,51,29.20
2016,06,05,13,52,29.30
2016,06,05,13,53,29.50
2016,06,05,13,54,29.60
2016,06,05,13,55,29.50
2016,06,05,13,56,29.30
2016,06,05,13,57,29.00
2016,06,05,13,58,28.70
2016,06,05,13,59,28.40
2016,06,05,14,00,28.10
2016,06,05,14,01,27.90
2016,06,05,14,02,27.70
2016,06,05,14,03,27.70
2016,06,05,14,04,27.70
2016,06,05,14,05,27.70
2016,06,05,14,06,27.70
2016,06,05,14,07,27.70
2016,06,05,14,08,27.80
2016,06,05,14,09,27.80
2016,06,05,14,10,27.80
2016,06,05,14,11,27.80
2016,06,05,14,12,27.70
2016,06,05,14,13,27.70
2016,06,05,14,14,27.60
2016,06,05,14,15,27.50
2016,06,05,14,16,27.40
2016,06,05,14,17,27.30
2016,06,05,14,18,27.10
2016,06,05,14,19,27.00
2016,06,05,14,20,26.90
2016,06,05,14,21,26.80
2016,06,05,14,22,26.60
2016,06,05,14,23,26.40
2016,06,05,14,24,26.20
2016,06,05,14,25,26.10
2016,06,05,14,26,26.10
2016,06,05,14,27,26.10
2016,06,05,14,28,26.20
2016,06,05,14,29,26.20
2016,06,05,14,30,26.30
2016,06,05,14,31,26.30
2016,06,05,14,32,26.40
2016,06,05,14,33,26.50
2016,06,05,14,34,26.50
2016,06,05,14,35,26.60
2016,06,05,14,36,26.60
2016,06,05,14,37,26.60
2016,06,05,14,38,26.60
2016,06,05,14,39,26.60
2016,06,05,14,40,26.60
2016,06,05,14,41,26.70
2016,06,05,14,42,26.80
2016,06,05,14,43,26.90
2016,06,05,14,44,26.90
2016,06,05,14,45,26.90
2016,06,05,14,46,26.90
2016,06,05,14,47,26.80
2016,06,05,14,48,26.80
2016,06,05,14,49,26.70
2016,06,05,14,50,26.70
2016,06,05,14,51,26.70
2016,06,05,14,52,26.80
2016,06,05,14,53,26.90
2016,06,05,14,54,27.00
2016,06,05,14,55,27.20
2016,06,05,14,56,27.30
2016,06,05,14,57,27.40
2016,06,05,14,58,27.40
2016,06,05,14,59,27.50
2016,06,05,15,00,27.50
2016,06,05,15,01,27.40
2016,06,05,15,02,27.40
2016,06,05,15,03,27.30
2016,06,05,15,04,27.30
2016,06,05,15,05,27.30
2016,06,05,15,06,27.20
2016,06,05,15,07,27.20
2016,06,05,15,08,27.10
2016,06,05,15,09,27.10
2016,06,05,15,10,27.10
2016,06,05,15,11,27.00
2016,06,05,15,12,27.00
2016,06,05,15,13,27.00
2016,06,05,15,14,27.00
2016,06,05,15,15,27.10
2016,06,05,15,16,27.10
2016,06,05,15,17,27.00
2016,06,05,15,18,26.90
2016,06,05,15,19,26.90
2016,06,05,15,20,27.00
2016,06,05,15,21,27.00
2016,06,05,15,22,26.90
2016,06,05,15,23,26.80
2016,06,05,15,24,26.80
2016,06,05,15,25,26.80
2016,06,05,15,26,26.80
2016,06,05,15,27,26.90
2016,06,05,15,28,27.10
2016,06,05,15,29,27.20
2016,06,05,15,30,27.20
2016,06,05,15,31,27.30
2016,06,05,15,32,27.30
2016,06,05,15,33,27.30
2016,06,05,15,34,27.30
2016,06,05,15,35,27.30
2016,06,05,15,36,27.10
2016,06,05,15,37,27.00
2016,06,05,15,38,26.90
2016,06,05,15,39,27.00
2016,06,05,15,40,27.00
2016,06,05,15,41,27.10
2016,06,05,15,42,27.20
2016,06,05,15,43,27.20
2016,06,05,15,44,27.30
2016,06,05,15,45,27.30
2016,06,05,15,46,27.30
2016,06,05,15,47,27.40
2016,06,05,15,48,27.50
2016,06,05,15,49,27.60
2016,06,05,15,50,27.70
2016,06,05,15,51,27.60
2016,06,05,15,52,27.60
2016,06,05,15,53,27.60
2016,06,05,15,54,27.70
2016,06,05,15,55,27.80
2016,06,05,15,56,27.80
2016,06,05,15,57,27.90
2016,06,05,15,58,27.90
2016,06,05,15,59,28.00
2016,06,05,16,00,28.00
2016,06,05,16,01,28.10
2016,06,05,16,02,28.10
2016,06,05,16,03,28.20
2016,06,05,16,04,28.20
2016,06,05,16,05,28.20
2016,06,05,16,06,28.30
2016,06,05,16,07,28.30
2016,06,05,16,08,28.40
2016,06,05,16,09,28.50
2016,06,05,16,10,28.50
2016,06,05,16,11,28.50
2016,06,05,16,12,28.50
2016,06,05,16,13,28.60
2016,06,05,16,14,28.60
2016,06,05,16,15,28.70
2016,06,05,16,16,28.80
2016,06,05,16,17,28.80
2016,06,05,16,18,28.90
2016,06,05,16,19,29.00
2016,06,05,16,20,29.00
2016,06,05,16,21,28.90
2016,06,05,16,22,28.90
2016,06,05,16,23,28.80
2016,06,05,16,24,28.80
2016,06,05,16,25,28.80
2016,06,05,16,26,28.80
2016,06,05,16,27,28.80
2016,06,05,16,28,28.90
2016,06,05,16,29,28.90
2016,06,05,16,30,29.00
2016,06,05,16,31,29.10
2016,06,05,16,32,29.10
2016,06,05,16,33,29.20
2016,06,05,16,34,29.20
2016,06,05,16,35,29.20
2016,06,05,16,36,29.30
2016,06,05,16,37,29.30
2016,06,05,16,38,29.30
2016,06,05,16,39,29.30
2016,06,05,16,40,29.30
2016,06,05,16,41,29.30
2016,06,05,16,42,29.30
2016,06,05,16,43,29.30
2016,06,05,16,44,29.30
2016,06,05,16,45,29.30
2016,06,05,16,46,29.30
2016,06,05,16,47,29.20
2016,06,05,16,48,29.10
2016,06,05,16,49,29.10
2016,06,05,16,50,29.10
2016,06,05,16,51,29.10
2016,06,05,16,52,29.10
2016,06,05,16,53,29.10
2016,06,05,16,54,29.00
2016,06,05,16,55,29.00
2016,06,05,16,56,29.00
2016,06,05,16,57,28.90
2016,06,05,16,58,28.80
2016,06,05,16,59,28.80
2016,06,05,17,00,28.70
2016,06,05,17,01,28.70
2016,06,05,17,02,28.60
2016,06,05,17,03,28.60
2016,06,05,17,04,28.60
2016,06,05,17,05,28.60
2016,06,05,17,06,28.60
2016,06,05,17,07,28.60
2016,06,05,17,08,28.60
2016,06,05,17,09,28.60
2016,06,05,17,10,28.60
2016,06,05,17,11,28.60
2016,06,05,17,12,28.50
2016,06,05,17,13,28.50
2016,06,05,17,14,28.40
2016,06,05,17,15,28.40
2016,06,05,17,16,28.40
2016,06,05,17,17,28.30
2016,06,05,17,18,28.30
2016,06,05,17,19,28.30